Location: ????????
(37.9452°N, 23.1472°E)
Time: 03:51:10
(UTC+00:00)

Cosmos 2366 rocket - Pass Details

Date: 18 April 2024
Orbit: 955 x 996 km, 82.9° (Epoch: 20 May)

Event Time Altitude Azimuth Distance (km) Brightness Sun altitude
Rises 17:18:48 0° 358° (N) 3,721 7.3 -3.2°
Reaches altitude 10° 17:21:25 10° 3° (N) 2,769 6.6 -3.7°
Maximum altitude 17:27:38 53° 80° (E) 1,211 4.2 -4.8°
Drops below altitude 10° 17:33:46 10° 156° (SSE) 2,747 6.0 -6.0°
Sets 17:36:21 0° 161° (SSE) 3,688 6.6 -6.5°
